Theta_e
292 293 292 292 292 292 292 293 292 286 284 286 285 288 289 288 287 286 285 283 283 285 286 286 288 289 290 291 292 293 294 295 295 296 296 296 297 298
290 290 290 291 290 291 290 290 291 292 290 288 286 287 287 285 285 284 284 281 283 284 284 285 287 288 290 290 290 291 292 293 294 294 295 295 295 296
288 289 288 289 289 289 289 288 287 288 290 283 285 286 285 284 282 283 283 283 284 283 284 285 286 288 288 288 289 290 291 291 291 292 292 292 293 294
288 287 287 285 287 287 286 286 286 286 287 282 281 282 282 283 282 281 281 281 282 283 284 285 286 286 286 287 287 288 288 289 289 289 289 290 291 292
287 285 285 285 284 284 284 284 284 283 285 285 280 281 280 281 280 280 281 282 282 282 283 284 284 284 285 286 286 287 287 286 286 287 288 288 289 290
287 285 285 284 284 283 283 284 283 283 283 283 283 279 279 279 280 280 279 281 281 281 282 282 283 283 284 285 285 284 284 284 285 286 287 287 288 288
285 284 284 284 285 284 283 284 283 283 281 281 280 278 277 277 277 280 279 281 281 282 281 282 282 283 283 283 283 283 283 284 285 285 286 286 286 287
283 283 283 283 283 286 286 286 284 282 280 280 280 278 278 278 280 279 279 278 279 283 281 280 282 281 282 282 283 283 283 284 284 285 285 285 285 285
283 283 282 282 282 283 286 286 284 285 284 282 280 279 279 279 280 278 278 278 278 280 280 277 280 279 281 281 283 283 283 284 284 284 284 285 285 284
284 283 283 281 281 281 282 282 282 282 282 281 282 281 281 281 281 280 279 279 280 279 278 273 278 278 280 281 282 283 283 283 283 283 283 283 283 283
283 284 283 282 282 283 281 281 280 280 283 283 282 282 282 282 281 280 277 276 274 275 277 275 276 276 277 279 281 282 281 281 281 281 282 282 282 282
283 282 282 282 284 283 281 281 279 279 278 279 279 281 282 281 281 280 279 275 274 272 275 273 275 275 273 278 279 279 278 279 280 280 281 281 281 281
283 281 281 283 283 283 284 281 281 280 280 278 279 279 279 279 280 280 278 276 273 273 275 275 274 274 273 273 276 277 277 277 278 278 279 280 280 280
283 282 281 281 283 283 283 282 283 281 279 279 278 277 276 275 276 275 275 275 276 275 275 275 272 273 272 271 271 276 276 277 277 277 277 279 279 280
284 283 282 281 282 282 283 283 281 279 278 276 276 276 275 275 274 273 274 274 274 274 274 274 273 273 272 271 271 272 273 275 276 276 276 276 276 277
284 281 280 280 281 281 281 283 280 277 277 276 275 275 274 273 271 272 271 270 270 270 273 273 273 272 271 272 271 271 272 271 274 275 275 276 277 277
281 279 278 278 278 279 279 278 278 276 275 275 273 271 271 270 270 271 270 269 268 268 269 271 272 272 272 270 269 270 271 272 273 274 274 273 274 275
278 276 276 276 277 278 278 277 276 274 274 273 272 270 269 269 269 269 269 268 267 268 268 269 269 269 270 271 273 270 271 271 273 273 272 270 270 273
277 276 276 276 277 278 278 274 274 273 272 271 270 270 269 269 269 268 268 268 267 267 268 268 268 267 265 264 270 273 270 271 270 269 270 271 270 272
279 276 276 276 277 277 273 272 272 270 270 270 269 269 268 268 267 267 267 266 266 266 266 267 266 267 266 265 265 269 272 269 269 268 269 271 272 274
279 276 277 277 275 274 272 271 270 270 269 268 268 267 267 267 266 266 266 265 265 265 264 265 267 270 269 268 265 266 269 272 271 269 269 268 267 267
278 276 274 273 273 272 272 270 269 268 267 267 266 265 265 265 265 265 265 265 265 265 265 267 268 268 267 265 264 264 266 268 270 271 271 270 267 264
274 272 271 271 270 269 268 267 266 265 265 264 264 264 264 263 265 265 265 264 264 264 265 265 266 267 265 265 264 264 264 264 266 265 266 270 271 271
Wind_Speed
14 13 10 8 8 7 7 7 6 7 10 10 7 11 8 8 8 5 5 4 8 8 7 7 8 9 10 10 11 12 13 14 14 15 16 16 17 18
12 15 13 9 9 8 8 7 7 6 6 5 10 9 11 8 8 7 6 6 11 9 8 8 9 10 11 12 12 13 14 14 14 14 15 17 18 19
16 16 17 13 10 9 9 9 8 7 6 4 7 9 13 11 8 7 5 7 5 9 10 10 10 11 11 11 13 13 15 16 16 16 16 17 17 18
18 17 17 11 14 12 9 11 10 10 6 9 9 9 10 11 9 9 7 6 7 8 11 12 13 10 10 11 14 15 16 17 17 17 16 17 17 17
17 18 18 16 16 11 12 10 9 7 9 6 6 7 5 8 9 8 8 9 7 10 12 12 12 10 9 12 15 17 16 16 15 15 15 15 17 18
18 18 18 19 19 16 14 13 10 9 8 8 7 8 8 7 8 8 8 8 7 7 10 9 9 10 12 15 16 16 15 16 16 17 17 17 19 20
18 18 19 20 26 22 14 14 13 10 9 8 8 7 9 7 11 7 7 5 5 5 5 4 4 5 6 10 12 15 14 15 18 18 19 19 20 19
19 18 18 21 24 30 30 29 24 19 15 11 10 11 11 8 8 7 6 4 3 2 2 5 5 7 7 8 15 17 18 18 18 18 18 18 18 19
20 19 17 15 20 20 28 27 29 31 27 19 18 14 12 11 11 10 8 6 4 4 2 8 6 8 8 9 19 19 19 20 18 17 18 19 20 19
20 20 19 20 20 22 20 20 19 20 20 13 14 11 9 11 10 8 8 6 5 5 4 5 5 7 7 9 19 20 19 17 16 17 19 19 20 22
17 18 20 19 23 32 21 22 18 16 21 22 16 17 17 19 14 9 7 7 5 5 5 5 5 5 8 10 10 14 15 18 18 18 19 20 22 24
16 17 25 22 27 34 23 20 19 18 17 15 12 16 18 15 19 11 9 8 6 2 6 5 4 2 4 5 7 8 9 15 18 18 19 21 21 11
14 13 12 29 30 32 33 19 22 17 23 16 12 10 11 11 9 9 9 9 8 6 3 3 3 4 5 4 9 10 10 9 10 11 17 18 18 16
15 11 11 24 31 30 29 27 28 24 13 13 13 12 12 9 9 8 9 9 8 8 4 7 5 7 7 8 8 6 8 10 10 9 9 13 17 21
13 16 20 24 29 29 36 33 27 14 14 13 14 13 10 10 11 10 9 7 8 8 7 10 9 11 9 10 10 10 11 5 10 9 10 10 11 11
19 13 18 21 24 23 20 22 15 13 12 12 12 10 10 10 9 9 8 7 6 5 9 9 10 11 10 10 10 11 11 9 10 11 10 11 11 11
10 10 11 13 13 14 13 13 12 12 12 12 11 11 10 9 9 8 7 7 5 5 6 6 8 10 10 12 10 11 11 11 10 13 15 14 13 13
12 12 12 13 13 14 13 14 12 14 12 12 11 11 10 10 10 9 7 7 7 6 6 5 5 6 7 8 16 11 10 11 11 12 14 14 17 15
13 12 12 12 12 13 12 11 12 12 13 11 12 11 11 9 11 9 8 8 6 6 6 5 6 6 7 9 7 14 11 9 13 15 11 12 16 19
11 12 11 11 11 11 10 10 10 11 10 10 10 10 10 9 9 8 8 7 6 5 5 6 6 7 7 9 10 11 20 13 11 15 16 15 18 33
10 12 10 9 10 10 11 10 12 11 11 10 9 9 9 9 8 8 7 8 6 5 6 6 7 6 7 9 10 12 10 18 20 16 17 16 19 21
8 10 8 9 10 9 9 9 10 10 11 10 9 9 8 7 8 8 6 6 6 5 5 5 6 6 7 9 12 18 16 12 16 27 29 28 15 18
8 10 10 9 9 9 9 10 10 10 10 10 9 8 8 7 6 6 6 5 4 5 5 5 6 6 8 9 13 14 20 21 16 15 13 25 30 35
Wind_Direction
214 212 216 209 203 200 189 181 179 186 205 185 174 195 191 181 189 220 238 227 254 268 274 279 293 297 295 299 311 312 315 316 326 322 320 318 317 317
210 206 204 204 202 201 199 195 196 194 197 164 200 182 186 189 179 224 233 252 249 253 252 262 277 281 293 306 309 311 310 311 309 307 310 313 313 311
205 204 205 202 201 196 195 191 192 184 174 163 185 176 188 192 202 215 235 248 251 246 256 263 270 278 292 296 298 301 304 306 308 311 311 308 309 311
210 213 208 195 204 198 195 191 193 183 173 164 182 185 196 203 201 209 216 236 245 243 248 259 262 269 283 298 296 296 298 301 307 308 307 306 307 306
217 210 208 199 204 194 194 196 192 183 178 172 157 183 188 196 202 212 218 227 228 235 248 252 253 258 275 280 285 288 292 297 293 290 292 301 303 308
223 216 210 205 204 197 194 201 183 184 188 172 173 173 188 183 199 195 203 221 220 209 228 229 250 262 269 277 281 288 290 292 294 299 308 310 313 313
223 217 213 213 206 196 191 189 186 181 188 186 187 181 186 176 203 183 203 213 241 230 242 223 278 290 290 288 283 283 287 292 297 304 304 309 306 309
224 224 222 208 208 198 198 192 187 180 190 191 189 202 195 188 178 185 181 193 234 182 221 284 293 293 283 275 272 276 281 283 284 289 291 294 295 307
225 221 216 213 211 206 203 196 198 197 193 189 191 190 190 182 172 178 185 189 207 150 217 283 252 252 244 254 258 264 266 268 271 276 286 293 299 302
226 225 220 214 206 200 197 198 197 199 200 200 199 176 174 169 177 171 175 195 242 265 235 251 272 245 261 260 265 261 258 264 270 280 292 293 295 300
236 228 225 220 212 206 197 200 195 197 198 197 188 167 163 169 163 147 171 170 220 255 194 236 265 257 272 258 256 246 245 279 281 284 289 292 297 302
233 234 226 216 207 205 205 200 199 189 177 177 180 173 171 176 176 175 172 185 192 220 207 203 237 246 283 232 233 243 264 266 281 283 287 292 297 296
234 223 224 222 216 206 207 206 205 175 179 171 172 172 168 176 176 175 174 188 198 219 168 196 257 246 228 271 239 249 262 268 282 287 287 285 290 295
237 220 216 213 217 210 208 208 206 178 176 174 170 175 168 159 169 158 182 189 207 219 214 224 257 248 258 275 264 239 269 276 271 278 292 291 292 290
241 217 207 207 215 210 211 196 198 184 179 176 179 179 168 154 152 153 177 184 218 228 226 244 248 259 260 259 272 283 297 284 281 267 304 295 289 285
248 205 194 201 203 206 206 194 190 179 181 173 174 160 143 155 140 164 166 174 206 228 237 236 246 252 262 263 275 282 286 287 297 296 298 290 283 279
216 189 189 194 197 207 195 177 188 169 166 166 157 152 148 140 155 161 153 169 204 192 221 232 243 256 265 274 276 267 278 280 288 300 305 298 289 288
197 191 194 194 191 194 198 171 173 165 163 157 151 144 148 155 157 154 156 183 198 204 225 238 260 278 268 252 241 266 271 281 290 289 293 293 294 293
203 199 197 192 186 189 192 163 165 168 153 153 152 151 147 152 151 160 169 183 190 205 220 235 251 263 280 285 280 271 283 285 299 292 285 279 280 285
203 200 194 186 181 179 157 163 156 149 152 147 145 144 144 147 152 161 174 179 181 195 218 230 239 243 261 285 289 286 284 281 279 285 292 288 279 283
207 188 186 175 156 153 161 157 156 152 145 142 138 137 139 142 152 165 175 180 183 201 225 234 242 274 284 284 279 279 275 279 282 284 290 291 297 301
178 168 147 140 148 152 150 149 140 138 134 131 129 127 134 148 152 168 180 182 192 216 239 254 256 255 274 278 285 290 294 292 280 282 279 275 284 288
135 135 130 130 131 136 140 137 137 129 127 127 129 135 138 149 159 179 172 186 208 229 250 262 263 277 280 282 282 284 291 299 304 300 276 274 279 280